Weather History for Thermal, CA

Change the Weather History Date:

Wednesday, July 10, 2013

  Actual Average Record
Temperature  
Mean Temperature 91 °F 90 °F  
Max Temperature 97 °F 107 °F 117 °F (1973)
Min Temperature 85 °F 73 °F 62 °F (1969)
Degree Days  
Heating Degree Days 0 0  
Month to date heating degree days 0 0  
Since 1 June heating degree days 0 0  
Since 1 July heating degree days 0 0  
Cooling Degree Days 26 25  
Month to date cooling degree days 297 246  
Year to date cooling degree days 1927 1527  
Since 1 June cooling degree days 1020 854  
Growing Degree Days 40 (Base 50)    
Moisture  
Dew Point 72 °F    
Average Humidity 60    
Maximum Humidity 74    
Minimum Humidity 45    
Precipitation  
Precipitation 0.00 in 0.00 in 0.00 in (2014)
Month to date precipitation 0.00 0.02  
Year to date precipitation 0.44 1.84  
Since 1 July precipitation 0.00 0.02  
Snow  
Snow 0.00 in - - ()
Month to date snowfall 0.0  
Year to date snowfall 0.0  
Since 1 July snowfall 0.0  
Snow Depth 0.00 in    
Sea Level Pressure  
Sea Level Pressure 29.83 in    
Wind  
Wind Speed 7 mph (SE)    
Max Wind Speed 18 mph    
Max Gust Speed 28 mph    
Visibility 10 miles    
Events      
T = Trace of Precipitation, MM = Missing Value Source: NWS Daily Summary

Daily Weather History Graph

Daily Weather History Graph

Search for Another Location

Airport:

Trip Planner

Search our weather history database for the weather conditions in past years. The results will help you decide how hot, cold, wet, or windy it might be!

Date:

Astronomy

Jul. 10, 2013 Rise Set
Actual Time 5:42 AM PDT 7:57 PM PDT
Civil Twilight 5:14 AM PDT 8:25 PM PDT
Nautical Twilight 4:39 AM PDT 9:00 PM PDT
Astronomical Twilight 4:01 AM PDT 9:38 PM PDT
Moon 7:58 AM PDT (7/10) 9:19 PM PDT (7/10)
Length of Visible Light 15h 11m
Length of Day
14h 14m
Waxing Crescent, 6% of the Moon is Illuminated
Jul 10
Waxing Crescent
Jul 15
First Quarter
Jul 22
Full
Jul 29
Last Quarter
Aug 6
New

Hourly Weather History & Observations

Time (PDT) Temp. Heat Index Dew Point Humidity Pressure Visibility Wind Dir Wind Speed Gust Speed Precip Events Conditions
12:52 AM 87.1 °F 97.3 °F 75.9 °F 69% 29.82 in 10.0 mi SSE 8.1 mph - N/A   Clear
1:52 AM 86.0 °F 96.0 °F 75.9 °F 72% 29.82 in 10.0 mi SSE 5.8 mph - N/A   Clear
2:52 AM 84.9 °F 93.3 °F 75.0 °F 72% 29.83 in 10.0 mi SSE 6.9 mph - N/A   Clear
3:52 AM 86.0 °F 93.0 °F 73.0 °F 65% 29.88 in 10.0 mi SE 13.8 mph 23.0 mph N/A   Clear
4:52 AM 84.9 °F 92.1 °F 73.9 °F 69% 29.90 in 10.0 mi SSE 10.4 mph - N/A   Clear
5:34 AM 84.2 °F 90.9 °F 73.4 °F 70% 29.88 in 10.0 mi SE 6.9 mph - N/A   Mostly Cloudy
5:52 AM 84.9 °F 92.1 °F 73.9 °F 69% 29.90 in 10.0 mi SE 5.8 mph - N/A   Overcast
6:36 AM 84.2 °F 90.9 °F 73.4 °F 70% 29.89 in 10.0 mi SSE 4.6 mph - N/A   Overcast
6:52 AM 84.9 °F 92.1 °F 73.9 °F 69% 29.90 in 10.0 mi Calm Calm - N/A   Overcast
7:52 AM 86.0 °F 93.0 °F 73.0 °F 65% 29.89 in 8.0 mi South 3.5 mph - N/A   Partly Cloudy
8:52 AM 86.0 °F 93.8 °F 73.9 °F 67% 29.89 in 7.0 mi SE 3.5 mph - N/A   Clear
9:52 AM 87.1 °F 95.4 °F 73.9 °F 65% 29.88 in 8.0 mi ESE 3.5 mph - N/A   Clear
10:52 AM 91.0 °F 100.4 °F 73.9 °F 57% 29.88 in 10.0 mi SSE 4.6 mph - N/A   Clear
11:52 AM 90.0 °F 97.9 °F 73.0 °F 57% 29.86 in 10.0 mi SE 5.8 mph - N/A   Clear
12:52 PM 91.9 °F 100.7 °F 73.0 °F 54% 29.85 in 10.0 mi SSE 8.1 mph - N/A   Clear
1:52 PM 96.1 °F 105.6 °F 73.0 °F 47% 29.83 in 10.0 mi SSE 9.2 mph - N/A   Clear
2:52 PM 93.9 °F 103.4 °F 73.0 °F 51% 29.81 in 10.0 mi ESE 10.4 mph - N/A   Clear
3:52 PM 95.0 °F 103.2 °F 72.0 °F 47% 29.79 in 10.0 mi Variable 5.8 mph - N/A   Clear
4:52 PM 96.1 °F 103.5 °F 71.1 °F 44% 29.76 in 10.0 mi ESE 5.8 mph - N/A   Clear
5:52 PM 96.1 °F 102.9 °F 70.0 °F 43% 29.74 in 10.0 mi ESE 3.5 mph - N/A   Clear
6:52 PM 93.9 °F 102.1 °F 72.0 °F 49% 29.74 in 10.0 mi SSE 3.5 mph - N/A   Clear
7:52 PM 91.9 °F 98.4 °F 71.1 °F 50% 29.75 in 10.0 mi Calm Calm - N/A   Clear
8:52 PM 90.0 °F 96.9 °F 72.0 °F 55% 29.76 in 10.0 mi Calm Calm - N/A   Clear
9:52 PM 93.0 °F 92.3 °F 59.0 °F 32% 29.78 in 10.0 mi NNW 6.9 mph - N/A   Clear
10:52 PM 89.1 °F 88.8 °F 60.1 °F 38% 29.79 in 10.0 mi NNW 3.5 mph - N/A   Clear
11:52 PM 87.1 °F 88.9 °F 64.9 °F 48% 29.80 in 10.0 mi ESE 3.5 mph - N/A   Clear